Weather History for Kalaeloa, HI

Change the Weather History Date:

Friday, April 19, 2013

  Actual Average (PHNL) Record (PHNL)
Temperature  
Mean Temperature 73 °F 76 °F  
Max Temperature 80 °F 83 °F 89 °F (1996)
Min Temperature 66 °F 70 °F 62 °F (1954)
Degree Days  
Heating Degree Days 0 0  
Month to date heating degree days 0  
Since 1 July heating degree days 0  
Cooling Degree Days 8 11  
Month to date cooling degree days 209  
Year to date cooling degree days 984  
Growing Degree Days 23 (Base 50)    
Moisture  
Dew Point 66 °F    
Average Humidity 78    
Maximum Humidity 94    
Minimum Humidity 66    
Precipitation  
Precipitation 0.00 in 0.01 in 3.14 in (1974)
Month to date precipitation 0.47  
Year to date precipitation 6.79  
Snow  
Snow 0.00 in - - ()
Month to date snowfall  
Since 1 July snowfall  
Snow Depth -    
Sea Level Pressure  
Sea Level Pressure 30.11 in    
Wind  
Wind Speed 4 mph (East)    
Max Wind Speed 12 mph    
Max Gust Speed 22 mph    
Visibility 10 miles    
Events      
T = Trace of Precipitation, MM = Missing Value Source: NWS Daily Summary

Daily Weather History Graph

Daily Weather History Graph

Search for Another Location

Airport:

Trip Planner

Search our weather history database for the weather conditions in past years. The results will help you decide how hot, cold, wet, or windy it might be!

Date:

Astronomy

Apr. 19, 2013 Rise Set
Actual Time 6:09 AM HST 6:53 PM HST
Civil Twilight 5:46 AM HST 7:16 PM HST
Nautical Twilight 5:20 AM HST 7:42 PM HST
Astronomical Twilight 4:52 AM HST 8:10 PM HST
Moon 1:31 PM HST (4/19) 1:46 AM HST (4/19)
Length of Visible Light 13h 29m
Length of Day
12h 43m
Waxing Gibbous, 64% of the Moon is Illuminated
Apr 19
Waxing Gibbous
Apr 25
Full
May 2
Last Quarter
May 9
New
May 17
First Quarter

Hourly Weather History & Observations

Time (HST) Temp. Heat Index Dew Point Humidity Pressure Visibility Wind Dir Wind Speed Gust Speed Precip Events Conditions
12:53 AM 68.0 °F - 64.0 °F 87% 30.15 in 10.0 mi Calm Calm - N/A   Clear
1:53 AM 68.0 °F - 64.0 °F 87% 30.13 in 10.0 mi Calm Calm - N/A   Clear
2:21 AM 66.2 °F - 64.4 °F 94% 30.10 in 10.0 mi Calm Calm - N/A   Partly Cloudy
2:53 AM 66.9 °F - 63.0 °F 87% 30.11 in 10.0 mi Variable 3.5 mph - N/A   Clear
3:53 AM 66.9 °F - 63.0 °F 87% 30.10 in 10.0 mi Calm Calm - N/A   Clear
4:53 AM 66.9 °F - 63.0 °F 87% 30.10 in 10.0 mi NE 3.5 mph - N/A   Clear
5:53 AM 66.9 °F - 63.0 °F 87% 30.10 in 10.0 mi Variable 3.5 mph - N/A   Clear
6:53 AM 69.1 °F - 64.0 °F 84% 30.12 in 10.0 mi Calm Calm - N/A   Clear
7:53 AM 73.0 °F - 66.9 °F 81% 30.14 in 10.0 mi Variable 4.6 mph - N/A   Clear
8:53 AM 75.9 °F - 66.9 °F 74% 30.14 in 10.0 mi East 6.9 mph - N/A   Partly Cloudy
9:35 AM 77.0 °F - 66.2 °F 69% 30.12 in 10.0 mi ESE 8.1 mph - N/A   Mostly Cloudy
9:53 AM 77.0 °F - 66.9 °F 71% 30.14 in 10.0 mi East 8.1 mph - N/A   Mostly Cloudy
10:33 AM 77.0 °F - 68.0 °F 74% 30.13 in 10.0 mi ESE 8.1 mph - N/A   Overcast
10:53 AM 78.1 °F - 68.0 °F 71% 30.14 in 10.0 mi East 8.1 mph - N/A   Overcast
11:11 AM 75.2 °F - 68.0 °F 78% 30.12 in 10.0 mi East 9.2 mph - N/A   Overcast
11:34 AM 78.8 °F - 68.0 °F 69% 30.11 in 10.0 mi East 9.2 mph - 0.00 in   Overcast
11:53 AM 77.0 °F - 69.1 °F 76% 30.13 in 10.0 mi Variable 4.6 mph 19.6 mph 0.00 in   Overcast
12:41 PM 78.8 °F - 68.0 °F 69% 30.10 in 10.0 mi Variable 5.8 mph - N/A   Overcast
12:53 PM 78.1 °F - 68.0 °F 71% 30.11 in 10.0 mi Variable 6.9 mph - N/A   Overcast
1:07 PM 80.6 °F 83.9 °F 69.8 °F 70% 30.09 in 10.0 mi ESE 8.1 mph - N/A   Mostly Cloudy
1:53 PM 80.1 °F 82.7 °F 68.0 °F 67% 30.08 in 10.0 mi ESE 11.5 mph 17.3 mph N/A   Mostly Cloudy
2:53 PM 79.0 °F - 66.9 °F 66% 30.06 in 10.0 mi East 8.1 mph 18.4 mph N/A   Mostly Cloudy
3:53 PM 78.1 °F - 68.0 °F 71% 30.06 in 10.0 mi ESE 10.4 mph 21.9 mph N/A   Clear
4:53 PM 77.0 °F - 68.0 °F 74% 30.06 in 10.0 mi ESE 11.5 mph 17.3 mph N/A   Clear
5:53 PM 75.0 °F - 66.9 °F 76% 30.07 in 10.0 mi ESE 9.2 mph 16.1 mph N/A   Clear
6:53 PM 73.9 °F - 64.9 °F 73% 30.10 in 10.0 mi East 5.8 mph - N/A   Mostly Cloudy
7:53 PM 72.0 °F - 64.9 °F 78% 30.11 in 10.0 mi Variable 3.5 mph - N/A   Partly Cloudy
8:53 PM 71.1 °F - 64.9 °F 81% 30.13 in 10.0 mi ENE 3.5 mph - N/A   Clear
9:53 PM 70.0 °F - 66.0 °F 87% 30.14 in 10.0 mi ENE 3.5 mph - N/A   Clear
10:53 PM 71.1 °F - 66.0 °F 84% 30.14 in 10.0 mi Calm Calm - N/A   Overcast
11:53 PM 72.0 °F - 68.0 °F 87% 30.13 in 10.0 mi ESE 6.9 mph - N/A   Overcast